Overview Statistics Trail Chart Weather Telemetry Raw packets
 

This is the latest recevied weather packets stored in our database for station/object F5ZQC-13. If no packets are shown the sender has not sent any weather packets the latest 10 day(s).

<< 142 143 144 145 146 147 >>
Time Temp. Humidity Pressure Rain* Wind** Luminosity Snow
1787737490 32.78° C 24% 1009.9 hPa 0 mm - - -
1787737368 32.78° C 23% 1010 hPa 0 mm - - -
1787737001 32.78° C 23% 1009.9 hPa 0 mm - - -
1787736634 33.33° C 22% 1009.8 hPa 0 mm - - -
1787735288 32.78° C 26% 1009.8 hPa 0 mm - - -
1787735171 32.22° C 26% 1009.9 hPa 0 mm - - -
1787734677 31.67° C 28% 1010 hPa 0 mm - - -
1787734311 31.11° C 29% 1010.1 hPa 0 mm - - -
1787734066 30.56° C 29% 1010 hPa 0 mm - - -
1787733577 30° C 32% 1010.1 hPa 0 mm - - -
1787733455 29.44° C 32% 1010 hPa 0 mm - - -
1787733335 29.44° C 32% 1010.1 hPa 0 mm - - -
1787733212 29.44° C 32% 1010.1 hPa 0 mm - - -
1787733088 28.89° C 33% 1010.3 hPa 0 mm - - -
1787732722 28.33° C 34% 1010.3 hPa 0 mm - - -
1787732354 27.78° C 33% 1010.3 hPa 0 mm - - -
1787732232 27.78° C 34% 1010.2 hPa 0 mm - - -
1787731987 27.22° C 34% 1010.3 hPa 0 mm - - -
1787731743 27.22° C 34% 1010.3 hPa 0 mm - - -
1787731376 26.67° C 35% 1010.4 hPa 0 mm - - -
1787731253 26.11° C 36% 1010.4 hPa 0 mm - - -
1787731009 26.11° C 36% 1010.5 hPa 0 mm - - -
1787730765 25.56° C 34% 1010.5 hPa 0 mm - - -
1787729909 24.44° C 37% 1010.4 hPa 0 mm - - -
1787729542 23.89° C 39% 1010.6 hPa 0 mm - - -

* Rain since midnight (hover to see other rain measurements)
** Current wind speed in m/s (hover to see current wind gust speed)